Location: Petruro
(41.0333°N, 14.7833°E)
Time: 23:04:29
(UTC+00:00)

COSMOS 2251 DEB - Visible Passes

Search period start: 28 January 2022 00:00
Search period end: 07 February 2022 00:00
Orbit: 725 x 749 km, 74.0° (Epoch: 23 January)

Date Brightness Start Highest point End Pass type
(mag) Time Alt. Az. Time Alt. Az. Time Alt. Az.
28 Jan ? 16:35:02 10° N 16:38:46 20° ENE 16:42:31 10° ESE visible
28 Jan ? 18:15:30 10° NNW 18:20:30 53° WSW 18:25:28 10° S visible
29 Jan ? 17:28:59 10° NNW 17:34:08 73° ENE 17:39:16 10° SSE visible
29 Jan ? 19:12:42 10° WNW 19:14:49 12° W 19:16:54 10° WSW visible
30 Jan ? 16:42:51 10° N 16:47:35 35° ENE 16:52:17 10° SE visible
30 Jan ? 18:24:31 10° NW 18:28:47 27° W 18:33:04 10° SSW visible
31 Jan ? 17:37:33 10° NNW 17:42:36 58° WSW 17:47:37 10° S visible
01 Feb ? 16:51:04 10° NNW 16:56:13 68° ENE 17:01:20 10° SSE visible
01 Feb ? 18:34:25 10° WNW 18:36:56 14° W 18:39:27 10° SW visible
02 Feb ? 05:42:50 10° SE 05:46:16 19° E 05:49:43 10° NE visible
02 Feb ? 17:46:29 10° NW 17:50:54 29° W 17:55:18 10° SSW visible
03 Feb ? 16:59:35 10° NNW 17:04:41 63° WSW 17:09:45 10° S visible
04 Feb ? 17:56:12 10° WNW 17:59:03 15° W 18:01:55 10° SW visible
05 Feb ? 05:05:10 10° SE 05:08:22 17° E 05:11:36 10° NE visible
05 Feb ? 17:08:28 10° NW 17:13:00 32° W 17:17:30 10° SSW visible
